DW1449 Weather Reports


Display with metric or nautical units.
time (UTC)temp
F
wind
direction
speed
MPH
gust
MPH
rain 1hr
in
rain 24hr
in
rain mn
in
humidity
%
barometer
mb
20240623110535 59 331 10.0 17.0 0.00 0.11 0.00 88 1015.7
20240623110035 59 320 11.0 17.0 0.00 0.11 0.00 89 1016.0
20240623105535 58 297 11.0 17.0 0.00 0.11 0.00 90 1015.8
20240623105036 58 321 11.0 18.0 0.00 0.11 0.00 91 1015.8
20240623104548 58 316 11.0 18.0 0.00 0.11 0.00 91 1015.8
20240623104039 58 323 9.0 17.0 0.00 0.11 0.00 92 1015.8
20240623103535 58 323 8.0 17.0 0.00 0.11 0.00 93 1015.8
20240623103043 58 285 10.0 15.0 0.00 0.11 0.00 93 1015.7
20240623102540 58 295 6.0 14.0 0.00 0.11 0.00 93 1015.6
20240623102035 58 302 8.0 14.0 0.00 0.11 0.00 92 1015.4
20240623101543 58 290 10.0 14.0 0.00 0.11 0.00 92 1015.5
20240623101038 58 305 7.0 13.0 0.00 0.11 0.00 92 1015.3
20240623100535 58 302 8.0 15.0 0.00 0.11 0.00 92 1015.2
20240623100041 58 302 10.0 19.0 0.00 0.11 0.00 91 1015.1
20240623095535 58 307 12.0 19.0 0.00 0.11 0.00 91 1015.3
20240623095036 58 304 12.0 17.0 0.00 0.11 0.00 90 1015.1
20240623094542 58 325 9.0 15.0 0.00 0.11 0.00 91 1015.3
20240623094034 58 304 9.0 15.0 0.00 0.11 0.00 91 1015.2
20240623093535 58 307 10.0 16.0 0.00 0.11 0.00 91 1015.1
20240623093040 58 290 5.0 17.0 0.00 0.11 0.00 91 1015.0
20240623092535 58 311 12.0 18.0 0.00 0.11 0.00 90 1014.9
20240623092035 58 288 13.0 18.0 0.00 0.11 0.00 90 1014.7
20240623091536 59 301 7.0 12.0 0.00 0.11 0.00 91 1014.6
20240623091035 59 294 8.0 13.0 0.00 0.11 0.00 91 1014.5
20240623090538 59 340 9.0 16.0 0.00 0.11 0.00 91 1014.3
20240623090037 59 311 12.0 16.0 0.00 0.11 0.00 91 1014.4
20240623085537 58 305 11.0 15.0 0.00 0.11 0.00 92 1014.5
20240623085035 58 314 7.0 15.0 0.00 0.11 0.00 92 1014.3
20240623084541 58 300 8.0 18.0 0.00 0.11 0.00 93 1014.3
20240623084037 58 311 11.0 18.0 0.00 0.11 0.00 93 1014.2
20240623083537 58 338 8.0 17.0 0.00 0.11 0.00 93 1014.2
20240623083039 58 310 11.0 17.0 0.00 0.11 0.00 93 1014.1
20240623082535 58 309 10.0 17.0 0.00 0.11 0.00 93 1014.1
20240623082036 58 308 8.0 17.0 0.00 0.11 0.00 93 1013.9
20240623081536 58 307 11.0 17.0 0.00 0.11 0.00 93 1014.0
20240623081036 58 318 9.0 16.0 0.00 0.11 0.00 93 1013.9
20240623080536 58 309 9.0 15.0 0.00 0.11 0.00 92 1014.0
20240623080056 58 320 11.0 21.0 0.00 0.11 0.00 92 1013.8
20240623075540 58 302 11.0 21.0 0.00 0.11 0.00 93 1013.8
20240623075035 58 311 7.0 12.0 0.00 0.11 0.00 94 1013.6
20240623074537 58 316 7.0 13.0 0.00 0.11 0.00 94 1013.6
20240623074041 58 302 8.0 16.0 0.00 0.11 0.00 95 1013.5
20240623073535 57 304 9.0 16.0 0.00 0.11 0.00 95 1013.6
20240623073040 57 323 8.0 14.0 0.00 0.11 0.00 96 1013.6
20240623072536 57 307 9.0 15.0 0.00 0.11 0.00 96 1013.5
20240623072035 57 293 7.0 15.0 0.00 0.11 0.00 96 1013.6
20240623071543 57 309 8.0 16.0 0.00 0.11 0.00 96 1013.5
20240623071035 57 293 6.0 16.0 0.00 0.11 0.00 96 1013.3
20240623070535 57 293 6.0 13.0 0.00 0.11 0.00 96 1013.4
20240623070046 57 309 7.0 14.0 0.00 0.11 0.00 96 1013.3
20240623065537 57 325 7.0 15.0 0.00 0.11 0.00 96 1013.2
20240623065035 56 305 7.0 15.0 0.00 0.11 0.00 96 1013.2
20240623064536 56 323 8.0 17.0 0.00 0.10 0.00 96 1013.2
20240623064039 57 311 10.0 17.0 0.00 0.10 0.00 96 1013.1
20240623063536 57 308 9.0 17.0 0.00 0.10 0.00 95 1013.1
20240623063035 57 309 7.0 16.0 0.00 0.10 0.00 95 1013.0
20240623062534 57 301 6.0 12.0 0.00 0.10 0.00 95 1013.0
20240623062035 57 306 7.0 18.0 0.00 0.10 0.00 95 1013.1
20240623061540 57 297 9.0 18.0 0.00 0.10 0.00 94 1012.9
20240623061038 57 294 7.0 14.0 0.00 0.10 0.00 94 1012.9
20240623060535 57 309 4.0 13.0 0.00 0.10 0.00 93 1012.9
20240623060048 57 323 4.0 13.0 0.00 0.10 0.00 93 1012.8
20240623055536 57 307 5.0 11.0 0.00 0.10 0.00 92 1012.9
20240623055035 57 311 6.0 16.0 0.00 0.10 0.00 92 1012.8
20240623054540 57 291 7.0 16.0 0.00 0.10 0.00 91 1012.8
20240623054035 57 293 8.0 16.0 0.00 0.10 0.00 91 1012.8
20240623053538 57 307 8.0 19.0 0.00 0.10 0.00 90 1012.8
20240623053041 57 295 7.0 19.0 0.00 0.10 0.00 90 1012.6
20240623052535 57 292 10.0 19.0 0.00 0.10 0.00 90 1012.6
20240623052034 57 303 9.0 17.0 0.00 0.10 0.00 90 1012.5
20240623051538 57 297 8.0 18.0 0.00 0.10 0.00 89 1012.2
20240623051034 57 303 9.0 18.0 0.00 0.10 0.00 90 1012.2
20240623050536 57 304 7.0 16.0 0.00 0.10 0.00 90 1012.2
20240623050039 57 303 12.0 17.0 0.00 0.10 0.00 90 1012.1
20240623045536 57 298 10.0 17.0 0.00 0.10 0.00 90 1012.0
20240623045041 57 307 9.0 15.0 0.00 0.10 0.00 91 1012.0
20240623044535 57 288 6.0 15.0 0.00 0.10 0.00 91 1012.2
20240623044033 57 287 5.0 17.0 0.00 0.10 0.00 90 1012.1
20240623043535 57 283 8.0 17.0 0.00 0.10 0.00 90 1012.0
20240623043043 57 304 8.0 17.0 0.00 0.10 0.00 90 1011.8
20240623042532 57 300 7.0 13.0 0.00 0.10 0.00 90 1011.9
20240623042034 56 294 8.0 16.0 0.00 0.10 0.00 91 1011.8
20240623041550 57 288 9.0 16.0 0.00 0.10 0.00 91 1011.8
20240623041034 56 313 9.0 14.0 0.00 0.10 0.00 91 1011.8
20240623040534 56 303 6.0 14.0 0.00 0.10 0.00 91 1011.9
20240623040042 56 311 6.0 12.0 0.00 0.10 0.00 91 1011.8
20240623035533 56 338 7.0 13.0 0.00 0.10 0.00 91 1011.7
20240623035034 56 311 7.0 13.0 0.00 0.10 0.00 91 1012.0
20240623034541 56 303 9.0 13.0 0.00 0.10 0.00 91 1011.8
20240623034035 56 314 8.0 10.0 0.00 0.10 0.00 91 1011.8
20240623033534 56 293 6.0 14.0 0.00 0.10 0.00 91 1011.7
20240623033040 56 306 6.0 14.0 0.00 0.10 0.00 91 1011.6
20240623032533 56 292 7.0 11.0 0.00 0.10 0.00 92 1011.6
20240623032033 56 311 7.0 11.0 0.00 0.10 0.00 92 1011.7
20240623031540 56 297 6.0 10.0 0.00 0.10 0.00 92 1011.5
20240623031035 56 316 6.0 10.0 0.00 0.10 0.00 92 1011.6
20240623030536 56 326 5.0 10.0 0.00 0.10 0.00 92 1011.4
20240623030047 56 294 6.0 10.0 0.00 0.10 0.00 92 1011.5
20240623025539 56 314 4.0 10.0 0.00 0.11 0.00 92 1011.5
20240623025036 56 313 7.0 13.0 0.00 0.11 0.00 92 1011.3
20240623024540 56 302 8.0 13.0 0.00 0.11 0.00 92 1011.3
20240623024034 55 310 7.0 13.0 0.00 0.11 0.00 92 1011.4
20240623023532 55 315 8.0 18.0 0.00 0.11 0.00 93 1011.3
20240623023040 55 293 7.0 18.0 0.00 0.11 0.00 93 1011.3
20240623022536 55 318 7.0 15.0 0.00 0.11 0.00 93 1011.1
20240623022034 55 307 6.0 12.0 0.00 0.11 0.00 93 1011.2
20240623021541 55 315 6.0 12.0 0.00 0.11 0.00 93 1011.2
20240623021033 55 299 5.0 16.0 0.00 0.11 0.00 93 1011.2
20240623020532 55 304 5.0 16.0 0.00 0.11 0.00 93 1011.3
20240623020037 56 299 9.0 16.0 0.00 0.11 0.00 93 1011.2
20240623015531 56 301 8.0 19.0 0.00 0.11 0.00 92 1011.0
20240623015032 56 302 9.0 19.0 0.00 0.11 0.00 92 1011.0
20240623014536 56 302 11.0 19.0 0.00 0.11 0.00 93 1011.0
20240623014037 56 304 9.0 15.0 0.00 0.11 0.00 93 1011.0
20240623013534 56 319 8.0 13.0 0.00 0.11 0.00 93 1011.2
20240623013043 56 310 5.0 9.0 0.00 0.11 0.00 94 1010.9
20240623012536 56 293 6.0 9.0 0.00 0.11 0.00 94 1010.9
20240623012036 56 285 4.0 11.0 0.00 0.11 0.00 94 1010.8
20240623011541 56 311 4.0 11.0 0.00 0.11 0.00 94 1010.8
20240623011036 55 310 7.0 11.0 0.00 0.11 0.00 95 1010.7
20240623010536 55 294 5.0 10.0 0.00 0.11 0.00 95 1010.9
20240623010046 55 293 5.0 10.0 0.00 0.11 0.00 96 1010.8
20240623005535 55 297 4.0 12.0 0.00 0.15 0.00 96 1010.9
20240623005036 55 281 4.0 12.0 0.00 0.15 0.00 96 1010.7
20240623004539 55 298 5.0 10.0 0.00 0.15 0.00 96 1010.8
20240623004036 55 304 6.0 13.0 0.00 0.15 0.00 96 1010.7
20240623003535 55 297 7.0 13.0 0.00 0.15 0.00 96 1010.7
20240623003046 55 295 8.0 15.0 0.00 0.15 0.00 95 1010.5
20240623002535 55 304 9.0 15.0 0.00 0.15 0.00 95 1010.6
20240623002041 55 295 7.0 13.0 0.00 0.15 0.00 95 1010.7
20240623001542 55 311 7.0 11.0 0.00 0.15 0.00 95 1010.7
20240623001035 55 307 6.0 11.0 0.00 0.15 0.00 95 1010.4
20240623000536 55 307 7.0 11.0 0.00 0.15 0.00 95 1010.5
20240623000044 55 314 7.0 11.0 0.00 0.15 0.00 94 1010.5
20240622235536 55 309 6.0 10.0 0.00 0.18 0.00 94 1010.5
20240622235037 55 309 5.0 8.0 0.00 0.18 0.00 94 1010.4
20240622234535 55 305 5.0 8.0 0.00 0.18 0.00 94 1010.4
20240622234034 56 295 6.0 10.0 0.00 0.18 0.00 93 1010.4
20240622233535 56 293 4.0 14.0 0.00 0.18 0.00 93 1010.4
20240622233040 56 297 8.0 14.0 0.00 0.18 0.00 92 1010.5
20240622232535 56 309 9.0 12.0 0.00 0.18 0.00 92 1010.6
20240622232036 56 332 8.0 14.0 0.00 0.18 0.00 92 1010.4
20240622231539 56 321 7.0 14.0 0.00 0.18 0.00 92 1010.3
20240622231035 56 300 9.0 14.0 0.00 0.18 0.00 92 1010.4
20240622230535 56 302 8.0 14.0 0.00 0.18 0.00 93 1010.3
20240622230047 56 305 9.0 15.0 0.00 0.18 0.00 93 1010.2
20240622225539 56 310 9.0 18.0 0.00 0.28 0.00 93 1010.4
20240622225036 56 309 9.0 18.0 0.00 0.28 0.00 94 1010.4
20240622224536 56 302 8.0 16.0 0.00 0.28 0.00 94 1010.4
20240622224035 56 279 9.0 14.0 0.00 0.28 0.00 94 1010.2
20240622223534 56 307 7.0 16.0 0.00 0.28 0.00 94 1010.2
20240622223040 56 301 8.0 16.0 0.00 0.28 0.00 94 1010.0
20240622222536 56 311 9.0 16.0 0.00 0.28 0.00 95 1010.0
20240622222035 56 309 10.0 16.0 0.00 0.28 0.00 95 1010.0
20240622221552 56 311 8.0 15.0 0.00 0.28 0.00 95 1010.0
20240622221035 57 313 9.0 19.0 0.00 0.28 0.00 95 1009.9
20240622220536 57 314 10.0 19.0 0.00 0.28 0.00 95 1010.0
20240622220039 57 299 10.0 16.0 0.00 0.28 0.00 96 1010.0
20240622215536 57 315 10.0 14.0 0.00 0.33 0.28 96 1009.8
20240622215035 57 305 8.0 13.0 0.00 0.33 0.28 96 1010.0
20240622214539 57 297 8.0 12.0 0.00 0.33 0.28 96 1009.8
20240622214035 57 302 6.0 11.0 0.00 0.33 0.28 96 1009.7
20240622213535 57 328 7.0 12.0 0.00 0.33 0.28 96 1009.7
20240622213043 57 308 7.0 12.0 0.00 0.33 0.28 96 1009.7
20240622212535 57 300 7.0 12.0 0.00 0.33 0.28 97 1009.7
20240622212035 57 302 5.0 12.0 0.00 0.33 0.28 97 1009.7
20240622211542 57 307 6.0 12.0 0.00 0.33 0.28 97 1009.6
20240622211036 57 301 6.0 12.0 0.00 0.33 0.28 97 1009.5
20240622210535 57 298 9.0 12.0 0.00 0.33 0.28 97 1009.6
20240622210043 57 302 8.0 12.0 0.00 0.33 0.28 97 1009.4
20240622205535 57 335 7.0 13.0 0.00 0.33 0.28 97 1009.4
20240622205037 57 302 9.0 13.0 0.00 0.33 0.28 97 1009.4
20240622204541 57 306 7.0 15.0 0.00 0.33 0.28 97 1009.4
20240622204035 57 293 8.0 15.0 0.00 0.33 0.28 97 1009.4
20240622203535 56 311 9.0 15.0 0.00 0.33 0.28 97 1009.4
20240622203038 56 315 10.0 17.0 0.00 0.33 0.28 97 1009.3
20240622202536 56 300 10.0 17.0 0.00 0.33 0.28 97 1009.2
20240622202039 56 304 10.0 15.0 0.00 0.33 0.28 97 1009.2
20240622201541 56 311 9.0 16.0 0.00 0.33 0.28 97 1009.1
20240622201035 56 314 9.0 16.0 0.00 0.33 0.28 97 1009.0
20240622200536 56 302 7.0 14.0 0.00 0.33 0.28 97 1009.0
20240622200049 56 299 8.0 17.0 0.00 0.33 0.28 97 1009.0
20240622195536 56 307 10.0 17.0 0.00 0.33 0.28 97 1009.0
20240622195035 56 304 10.0 16.0 0.00 0.33 0.28 97 1008.8
20240622194540 56 299 7.0 16.0 0.00 0.33 0.28 97 1008.7
20240622194035 56 294 9.0 15.0 0.00 0.33 0.28 97 1008.7
20240622193534 56 303 8.0 15.0 0.00 0.33 0.28 97 1008.6
20240622193040 56 305 8.0 15.0 0.00 0.33 0.28 97 1008.6
20240622192536 56 315 10.0 20.0 0.00 0.33 0.28 97 1008.5
20240622192036 56 301 11.0 26.0 0.00 0.33 0.28 97 1008.4
20240622191600 56 300 17.0 26.0 0.00 0.33 0.28 97 1008.2
20240622191035 57 304 11.0 21.0 0.00 0.33 0.28 97 1008.1
20240622190536 57 310 10.0 19.0 0.00 0.33 0.28 97 1008.0
20240622190045 57 297 10.0 19.0 0.00 0.33 0.28 97 1008.0
20240622185535 57 309 9.0 19.0 0.00 0.33 0.28 97 1007.8
20240622185035 57 306 12.0 21.0 0.00 0.33 0.28 97 1007.8
20240622184547 57 307 11.0 21.0 0.00 0.33 0.28 97 1007.7
20240622184036 57 297 11.0 18.0 0.00 0.33 0.28 97 1007.7
20240622183537 57 322 11.0 18.0 0.00 0.33 0.28 97 1007.7
20240622183042 57 290 8.0 16.0 0.00 0.33 0.28 97 1007.8
20240622182536 57 295 8.0 13.0 0.00 0.33 0.28 97 1007.7
20240622182035 57 279 5.0 13.0 0.00 0.33 0.28 97 1007.7
20240622181540 57 275 6.0 9.0 0.00 0.33 0.28 97 1007.7
20240622181035 57 288 5.0 9.0 0.01 0.33 0.28 97 1007.6
20240622180540 57 265 6.0 9.0 0.02 0.33 0.28 97 1007.6
20240622180049 57 273 4.0 9.0 0.02 0.33 0.28 97 1007.5
20240622175536 57 283 5.0 10.0 0.02 0.33 0.28 97 1007.4
20240622175039 57 290 5.0 12.0 0.02 0.33 0.28 97 1007.5
20240622174547 57 283 5.0 12.0 0.02 0.33 0.28 97 1007.6
20240622174036 57 288 4.0 9.0 0.02 0.33 0.28 96 1007.5
20240622173536 57 285 5.0 11.0 0.02 0.33 0.28 96 1007.5
20240622173043 57 262 6.0 11.0 0.02 0.33 0.28 96 1007.5
20240622172535 57 205 5.0 10.0 0.02 0.33 0.28 96 1007.5
20240622172033 57 293 6.0 15.0 0.02 0.33 0.28 96 1007.4
20240622171548 57 288 5.0 15.0 0.01 0.33 0.27 96 1007.2
20240622171035 57 280 7.0 15.0 0.00 0.32 0.26 96 1007.2
20240622170538 57 271 6.0 17.0 0.00 0.31 0.25 95 1007.2
20240622170046 57 292 7.0 17.0 0.00 0.31 0.25 95 1007.2
20240622165535 58 269 9.0 17.0 0.00 0.31 0.25 95 1007.3
20240622165035 58 294 5.0 10.0 0.00 0.31 0.25 96 1007.2
20240622164537 58 290 5.0 14.0 0.00 0.31 0.25 96 1007.1
20240622164035 58 293 6.0 14.0 0.00 0.31 0.25 96 1007.1
20240622163535 58 290 6.0 19.0 0.00 0.31 0.25 96 1007.0
20240622163054 58 307 11.0 19.0 0.00 0.31 0.25 96 1007.1
20240622162534 58 310 7.0 16.0 0.00 0.31 0.25 97 1007.0
20240622162035 58 284 6.0 16.0 0.00 0.31 0.25 97 1006.9
20240622161541 58 290 6.0 15.0 0.00 0.31 0.25 97 1006.9
20240622161035 58 296 7.0 15.0 0.00 0.31 0.25 97 1006.9
20240622160534 58 306 7.0 20.0 0.00 0.31 0.25 97 1006.9
20240622160039 58 288 11.0 20.0 0.00 0.31 0.25 97 1006.6
20240622155538 58 294 10.0 20.0 0.00 0.31 0.25 97 1006.6
20240622155035 58 319 9.0 18.0 0.00 0.31 0.25 97 1006.6
20240622154542 59 296 9.0 18.0 0.00 0.31 0.25 97 1006.5
20240622154035 59 283 11.0 20.0 0.00 0.31 0.25 97 1006.5
20240622153533 59 316 10.0 20.0 0.00 0.31 0.25 97 1006.1
20240622153041 59 300 10.0 20.0 0.00 0.31 0.25 97 1006.0
20240622152535 59 302 7.0 14.0 0.00 0.31 0.25 97 1006.0
20240622152035 59 297 6.0 14.0 0.00 0.31 0.25 97 1006.0
20240622151538 60 301 8.0 14.0 0.00 0.31 0.25 97 1006.0
20240622151033 60 289 7.0 12.0 0.00 0.31 0.25 97 1006.0
20240622150535 60 268 6.0 11.0 0.00 0.31 0.25 97 1006.0
20240622150041 60 250 5.0 11.0 0.00 0.31 0.25 97 1005.7
20240622145535 60 304 5.0 11.0 0.00 0.31 0.25 97 1005.7
20240622145035 60 273 4.0 11.0 0.00 0.31 0.25 97 1005.8
20240622144538 60 262 6.0 9.0 0.00 0.31 0.25 97 1006.0
20240622144036 61 276 5.0 9.0 0.01 0.31 0.25 97 1005.8
20240622143536 61 255 6.0 9.0 0.03 0.31 0.25 97 1005.8
20240622143037 61 274 5.0 9.0 0.03 0.31 0.25 97 1005.8
20240622142536 61 295 4.0 7.0 0.03 0.31 0.25 97 1005.9
20240622142035 61 256 5.0 7.0 0.03 0.31 0.25 97 1005.8
20240622141538 61 282 4.0 6.0 0.03 0.31 0.25 97 1005.8
20240622141034 61 276 3.0 5.0 0.04 0.31 0.25 97 1005.7
20240622140538 61 279 3.0 5.0 0.05 0.31 0.25 97 1005.7
20240622140049 62 200 3.0 5.0 0.05 0.31 0.25 97 1005.8
20240622135534 62 197 1.0 4.0 0.05 0.31 0.25 97 1005.8
20240622135036 62 274 2.0 6.0 0.05 0.31 0.25 97 1005.8
20240622134542 62 197 2.0 6.0 0.04 0.30 0.25 97 1005.6
20240622134035 62 264 3.0 8.0 0.04 0.29 0.24 97 1005.7
20240622133535 62 203 3.0 8.0 0.03 0.28 0.22 97 1005.7
20240622133037 62 195 3.0 6.0 0.03 0.28 0.22 97 1005.6
20240622132534 62 206 3.0 6.0 0.03 0.28 0.22 97 1005.7
20240622132035 62 205 3.0 6.0 0.03 0.28 0.22 97 1005.6
20240622131539 62 206 2.0 5.0 0.03 0.27 0.22 97 1005.7
20240622131035 62 202 2.0 5.0 0.03 0.26 0.21 97 1005.6
20240622130534 62 221 2.0 5.0 0.02 0.25 0.20 97 1005.4
20240622130050 62 217 3.0 5.0 0.02 0.25 0.20 97 1005.5
20240622125535 62 203 3.0 4.0 0.02 0.25 0.20 96 1005.6
20240622125036 62 202 2.0 4.0 0.02 0.25 0.20 97 1005.7
20240622124545 62 208 2.0 5.0 0.02 0.25 0.20 96 1005.5
20240622124136 62 201 3.0 5.0 0.01 0.25 0.19 96 1005.7
20240622123535 62 205 3.0 5.0 0.01 0.25 0.19 96 1005.6
20240622123044 62 210 2.0 3.0 0.01 0.25 0.19 96 1005.7
20240622122534 62 0 1.0 3.0 0.00 0.24 0.18 96 1005.8
20240622122034 62 209 1.0 4.0 0.00 0.24 0.18 96 1005.7
20240622121536 62 0 1.0 4.0 0.00 0.23 0.18 96 1005.8
20240622121036 62 96 1.0 4.0 0.00 0.23 0.18 96 1005.7
20240622120535 62 120 1.0 4.0 0.00 0.23 0.18 96 1005.7
20240622120038 62 120 0.0 3.0 0.00 0.23 0.18 96 1005.7
20240622115535 62 0 0.0 2.0 0.00 0.23 0.18 96 1005.7
20240622115034 62 0 0.0 2.0 0.00 0.23 0.18 96 1005.7
20240622114537 62 0 0.0 2.0 0.00 0.23 0.18 96 1005.8
20240622114038 62 0 0.0 2.0 0.00 0.23 0.18 96 1005.7
20240622113535 62 128 0.0 1.0 0.00 0.23 0.18 96 1005.6
20240622113036 62 148 0.0 2.0 0.00 0.23 0.18 96 1005.6
20240622112534 62 0 0.0 2.0 0.00 0.23 0.18 95 1005.6
20240622112033 62 0 0.0 1.0 0.00 0.23 0.18 96 1005.5
20240622111535 62 0 0.0 2.0 0.00 0.23 0.18 96 1005.4
20240622111035 62 131 0.0 4.0 0.00 0.23 0.18 96 1005.5